Regional Weather Roundup
Issued by NWS

Home | Current Version | Previous Version | Graphics & Text | Print | Product List | Glossary On
Versions: 1 2 3 4 5 6 7 8 9 10 11 12 13 14 15 16 17 18 19 20 21 22 23 24 25 26 27 28 29 30 31 32 33 34 35 36 37 38 39 40 41 42 43 44 45 46 47 48 49 50
000
ASUS43 KOAX 202110
RWRNE

WEATHER ROUNDUP FOR NEBRASKA
NATIONAL WEATHER SERVICE OMAHA NE
400 PM CDT WED AUG 20 2014

NOTES: SATELLITE DATA IS BEING USED TO AUGMENT CLOUD COVER ABOVE
       12000 FEET.
       "FAIR" INDICATES FEW OR NO CLOUDS BELOW 12,000 FEET WITH NO
       SIGNIFICANT WEATHER AND/OR OBSTRUCTIONS TO VISIBILITY.

  * THESE STATIONS DO NOT REPORT WEATHER SUCH AS RAIN...SNOW OR FOG.

NEZ001>004-019>022-054>056-202200-
NEBRASKA PANHANDLE

CITY           SKY/WX    TMP DP  RH WIND       PRES   REMARKS
SCOTTSBLUFF    MOSUNNY   90  49  24 W18G24    29.82F
ALLIANCE       PTSUNNY   91  50  24 W17G24    29.80F
CHADRON        MOSUNNY   95  51  22 W10G16    29.73F HX  92
KIMBALL        PTSUNNY   86  45  23 NW13G23   29.88F
SIDNEY         CLOUDY    88  48  25 NW14      29.86S
$$

NEZ057>060-069>072-079>082-202200-
SOUTHWEST NEBRASKA

CITY           SKY/WX    TMP DP  RH WIND       PRES   REMARKS
NORTH PLATTE   SUNNY     88  66  48 VRB5      29.76F HX  90
IMPERIAL       SUNNY     90  57  32 NE8       29.80F
LEXINGTON      SUNNY     90  70  50 SE16      29.74F HX  95
MCCOOK         PTSUNNY   96  61  31 S9        29.74F HX  96
OGALLALA       SUNNY     89  52  28 NE7       29.78F
$$

NEZ005>010-023>029-035>040-094-202200-
NORTH CENTRAL NEBRASKA

CITY           SKY/WX    TMP DP  RH WIND       PRES   REMARKS
VALENTINE      MOSUNNY   91  58  32 S10G20    29.73F HX  90
AINSWORTH      MOSUNNY   86  67  53 SE9       29.74F
BROKEN BOW     PTSUNNY   91  72  53 S10       29.75F HX  98
O`NEILL        PTSUNNY   84  71  65 S14       29.74F HX  90
ORD            MOSUNNY   87  73  62 S15       29.73S HX  94
THEDFORD       PTSUNNY   87  67  50 SE10      29.78S HX  90
$$

NEZ041-046>049-061>064-073>077-083>087-202200-
SOUTH CENTRAL NEBRASKA

CITY           SKY/WX    TMP DP  RH WIND       PRES   REMARKS
GRAND ISLAND   SUNNY     90  73  57 S18G25    29.76F HX  98
AURORA         SUNNY     91  73  54 S15       29.76F HX  99
HASTINGS       SUNNY     91  67  44 S16G25    29.75F HX  94
HEBRON         SUNNY     91  66  43 S17G26    29.76F HX  94
HOLDREGE       MOSUNNY   91  65  42 S10       29.75S HX  92
KEARNEY *      MOSUNNY   91  73  55 SE20      29.75F HX 100
YORK           SUNNY     90 N/A N/A S18G26    29.76F
$$

NEZ011>018-030>034-042>045-202200-
NORTHEAST NEBRASKA

CITY           SKY/WX    TMP DP  RH WIND       PRES   REMARKS
NORFOLK        PTSUNNY   83  73  72 SE15      29.76F
ALBION         MOSUNNY   86  73  65 SE14      29.74F HX  93
BLAIR          MOSUNNY   88  72  60 SE14G21   29.80S HX  95
COLUMBUS *     MOSUNNY   88  72  58 S13G24    29.76F HX  94
FREMONT        MOSUNNY   90  71  53 SE12G21   29.77F HX  96
TEKAMAH        PTSUNNY   87  73  62 SE13G21   29.78F HX  94
WAYNE          CLOUDY    78  73  83 SE9       29.78F
$$

NEZ050>053-065>068-078-088>093-202200-
SOUTHEAST NEBRASKA

CITY           SKY/WX    TMP DP  RH WIND       PRES   REMARKS
LINCOLN        SUNNY     95  66  38 S18G30    29.77F HX  98
OMAHA EPPLEY   MOSUNNY   90  73  57 SE20      29.79F HX  98
BEATRICE       SUNNY     94  70  45 S18G24    29.78F HX 100
FALLS CITY     SUNNY     94  71  47 S17G23    29.80F HX 101
NEBRASKA CITY  SUNNY     89  73  59 SE17G23   29.81F HX  96
PLATTSMOUTH    MOSUNNY   91  73  56 SE14G20   29.81S HX  99
$$

NEZ044-045-051>053-067-202200-
OMAHA AREA

CITY           SKY/WX    TMP DP  RH WIND       PRES   REMARKS
OMAHA EPPLEY   MOSUNNY   90  73  57 SE20      29.79F HX  98
BLAIR          MOSUNNY   88  72  60 SE14G21   29.80S HX  95
FREMONT        MOSUNNY   90  71  53 SE12G21   29.77F HX  96
MILLARD        MOSUNNY   90  73  57 SE20      29.78F HX  98
OFFUTT AFB     MOSUNNY   89  79  72 SE20      29.79F HX 104
PLATTSMOUTH    MOSUNNY   91  73  56 SE14G20   29.81S HX  99
WAHOO          FAIR      94  64  37 S18G24    29.77S HX  95
$$


USA.gov is the U.S. government's official web portal to all federal, state and local government web resources and services.